Location: De Greiden
(52.9496°N, 5.9137°E)
Time: 01:46:55
(UTC+00:00)

CZ-4B R/B - Pass Details

Date: 24 January 2021
Orbit: 809 x 882 km, 99.1° (Epoch: 26 February)

Event Time Altitude Azimuth Distance (km) Brightness Sun altitude
Rises 17:24:42 0° 178° (S) 3,425 6.6 -11.6°
Reaches altitude 10° 17:27:07 10° 183° (S) 2,502 5.9 -11.9°
Maximum altitude 17:32:33 52° 259° (W) 1,076 4.2 -12.7°
Drops below altitude 10° 17:38:06 10° 336° (NNW) 2,550 5.8 -13.5°
Sets 17:40:35 0° 342° (NNW) 3,496 6.5 -13.9°
